Location: S�tio Afonso Gruber
(26.1760°S, 49.5250°W)
Time: 22:25:29
(UTC+00:00)

USA 215 - Pass Details

Date: 07 June 2020
Orbit: 1098 x 1110 km, 123.0° (Epoch: 06 July)

Event Time Altitude Azimuth Distance (km) Brightness Sun altitude
Rises 08:53:03 0° 152° (SSE) 3,949 6.3 -14.9°
Reaches altitude 10° 08:55:49 10° 161° (SSE) 2,989 5.5 -14.3°
Maximum altitude 09:01:31 32° 221° (SW) 1,798 3.9 -13.1°
Drops below altitude 10° 09:07:13 10° 281° (WNW) 2,975 5.0 -11.9°
Enters shadow 09:07:42 - 284° (WNW) 3,136 5.1 -11.8°
